Mount Airy, NC

3:31 AM EDT on August 25, 2019 (GMT -0400)
Mount Airy-Surry County

Weather History for KMWK - July, 2019

Change the Weather History Date:

Tuesday, July 23, 2019

  Actual Average (WUND) Record (WUND)
Temperature  
Mean Temperature 68 °F -  
Max Temperature 72 °F - - (-1)
Min Temperature 64 °F - - (-1)
Cooling Degree Days 4    
Growing Degree Days 18 (Base 50)    
Moisture  
Dew Point 67 °F    
Average Humidity 90    
Maximum Humidity 92    
Minimum Humidity 85    
Precipitation  
Precipitation 1.33 in - - ()
Sea Level Pressure  
Sea Level Pressure 29.95 in    
Wind  
Wind Speed 1 mph (ENE)    
Max Wind Speed 9 mph    
Max Gust Speed -    
Visibility 8 miles    
Events Rain    
Averages and records for this station are not official NWS values.
T = Trace of Precipitation, MM = Missing Value Source: NWS Daily Summary

Daily Weather History Graph

Daily Weather History Graph

Search for Another Location

Airport or City:

Astronomy

Jul. 23, 2019 Rise Set
Actual Time 6:21 AM EDT 8:35 PM EDT
Civil Twilight 5:52 AM EDT 9:04 PM EDT
Nautical Twilight 5:16 AM EDT 9:40 PM EDT
Astronomical Twilight 4:37 AM EDT 10:19 PM EDT
Moon 12:05 AM EDT (7/23) 12:23 PM EDT (7/23)
Length of Visible Light 15h 12m
Length of Day
14h 14m
Waning Gibbous, 63% of the Moon is Illuminated
Jul 23
Waning Gibbous
Jul 24
Last Quarter
Jul 31
New
Aug 7
First Quarter
Aug 15
Full

Hourly Weather History & Observations

Time (EDT) Temp. Dew Point Humidity Pressure Visibility Wind Dir Wind Speed Gust Speed Precip Events Conditions
12:00 AM 72.5 °F 69.8 °F 91% 29.97 in 10.0 mi Calm Calm - N/A Rain Light Rain
12:20 AM 72.5 °F 69.8 °F 91% 29.96 in 10.0 mi Calm Calm - N/A   Clear
12:40 AM 72.5 °F 69.4 °F 90% 29.96 in 10.0 mi Calm Calm - N/A   Mostly Cloudy
1:00 AM 72.5 °F 69.8 °F 91% 29.95 in 10.0 mi Calm Calm - N/A   Mostly Cloudy
1:20 AM 72.0 °F 69.3 °F 91% 29.95 in 10.0 mi Calm Calm - N/A   Mostly Cloudy
1:40 AM 71.8 °F 69.1 °F 91% 29.95 in 10.0 mi Calm Calm - N/A   Mostly Cloudy
2:00 AM 71.6 °F 68.9 °F 91% 29.95 in 10.0 mi Calm Calm - N/A   Mostly Cloudy
2:20 AM 71.8 °F 69.1 °F 91% 29.94 in 10.0 mi Calm Calm - N/A   Scattered Clouds
2:40 AM 72.1 °F 69.4 °F 91% 29.94 in 10.0 mi SSE 4.6 mph - N/A   Mostly Cloudy
3:00 AM 72.0 °F 69.3 °F 91% 29.95 in 7.0 mi SSE 4.6 mph - N/A   Overcast
3:20 AM 72.3 °F 69.6 °F 91% 29.94 in 10.0 mi SSW 3.5 mph - N/A Rain Light Rain
3:40 AM 72.5 °F 69.8 °F 91% 29.94 in 7.0 mi Calm Calm - N/A Rain Light Rain
4:00 AM 72.5 °F 69.8 °F 91% 29.93 in 10.0 mi Calm Calm - N/A Rain Rain
4:20 AM 72.3 °F 69.6 °F 91% 29.94 in 4.0 mi Calm Calm - N/A Rain Heavy Rain
4:40 AM 71.6 °F 68.9 °F 91% 29.93 in 7.0 mi Calm Calm - N/A Rain Rain
5:00 AM 71.6 °F 68.9 °F 91% 29.92 in 10.0 mi Calm Calm - N/A   Mostly Cloudy
5:20 AM 72.3 °F 69.4 °F 91% 29.93 in 10.0 mi Calm Calm - N/A   Scattered Clouds
5:40 AM 71.6 °F 68.9 °F 91% 29.93 in 10.0 mi Calm Calm - N/A   Scattered Clouds
6:00 AM 71.6 °F 68.9 °F 91% 29.93 in 5.0 mi Calm Calm - N/A Rain Light Rain
6:20 AM 72.0 °F 69.3 °F 91% 29.93 in 7.0 mi Calm Calm - N/A Rain Light Rain
6:40 AM 71.6 °F 68.5 °F 90% 29.93 in 7.0 mi Calm Calm - N/A   Drizzle
7:00 AM 72.0 °F 69.3 °F 91% 29.93 in 7.0 mi Calm Calm - N/A   Drizzle
7:20 AM 72.0 °F 69.1 °F 91% 29.93 in 7.0 mi Calm Calm - N/A   Drizzle
7:40 AM 72.5 °F 69.6 °F 91% 29.94 in 7.0 mi Calm Calm - N/A   Light Drizzle
8:00 AM 72.5 °F 69.4 °F 90% 29.94 in 7.0 mi Calm Calm - N/A Rain Light Rain
8:20 AM 72.5 °F 69.4 °F 90% 29.95 in 7.0 mi Calm Calm - N/A Rain Light Rain
8:40 AM 72.5 °F 69.4 °F 90% 29.95 in 5.0 mi Calm Calm - N/A Rain Rain
9:00 AM 72.5 °F 69.4 °F 90% 29.95 in 5.0 mi Calm Calm - N/A Rain Rain
9:20 AM 72.5 °F 69.8 °F 91% 29.94 in 3.0 mi Calm Calm - N/A Rain Rain
9:40 AM 72.5 °F 69.8 °F 91% 29.94 in 10.0 mi Calm Calm - N/A Rain Light Rain
10:00 AM 72.9 °F 70.0 °F 91% 29.93 in 10.0 mi Calm Calm - N/A Rain Rain
10:20 AM 68.7 °F 66.0 °F 91% 29.93 in 5.0 mi North 8.1 mph - N/A Rain Heavy Rain
10:40 AM 67.5 °F 64.8 °F 91% 29.94 in 10.0 mi Calm Calm - N/A Rain Light Rain
11:00 AM 68.0 °F 65.3 °F 91% 29.95 in 10.0 mi Calm Calm - N/A Rain Light Rain
11:20 AM 68.2 °F 65.5 °F 91% 29.95 in 5.0 mi ENE 3.5 mph - N/A Rain Rain
11:40 AM 67.6 °F 64.9 °F 91% 29.95 in 10.0 mi NNE 3.5 mph - N/A Rain Rain
11:45 AM 67.5 °F 64.8 °F 91% 29.95 in 5.0 mi NNW 3.5 mph - N/A Rain Heavy Rain
12:15 PM 65.8 °F 63.1 °F 91% 29.96 in 1.5 mi NNW 4.6 mph - 0.42 in Rain Heavy Rain
12:40 PM 65.5 °F 62.8 °F 91% 29.96 in 3.0 mi NNE 4.6 mph - 1.08 in Rain Rain
1:00 PM 66.4 °F 63.9 °F 92% 29.94 in 7.0 mi East 5.8 mph - 0.01 in Rain Rain
1:20 PM 67.1 °F 64.4 °F 91% 29.92 in 10.0 mi East 9.2 mph - 0.08 in Rain Light Rain
1:35 PM 66.4 °F 63.7 °F 91% 29.95 in 10.0 mi NW 4.6 mph - 0.09 in Rain Rain
2:00 PM 66.7 °F 64.0 °F 91% 29.93 in 7.0 mi NNE 3.5 mph - N/A Rain Rain
2:20 PM 66.7 °F 64.0 °F 91% 29.95 in 7.0 mi Calm Calm - 0.05 in Rain Light Rain
2:35 PM 67.1 °F 64.4 °F 91% 29.95 in 10.0 mi Calm Calm - 0.06 in Rain Light Rain
2:55 PM 67.5 °F 64.8 °F 91% 29.95 in 10.0 mi Calm Calm - 0.09 in Rain Light Rain
3:20 PM 66.9 °F 64.4 °F 92% 29.94 in 5.0 mi Calm Calm - 0.07 in Rain Rain
3:40 PM 68.4 °F 65.7 °F 91% 29.93 in 10.0 mi ENE 4.6 mph - 0.07 in   Scattered Clouds
4:00 PM 70.0 °F 66.6 °F 89% 29.94 in 10.0 mi Calm Calm - N/A   Clear
4:20 PM 70.7 °F 66.0 °F 85% 29.95 in 10.0 mi Calm Calm - N/A   Clear
4:35 PM 70.7 °F 66.2 °F 86% 29.96 in 10.0 mi Calm Calm - N/A   Clear
5:00 PM 72.0 °F 67.5 °F 86% 29.96 in 10.0 mi Calm Calm - N/A   Clear
5:15 PM 70.7 °F 66.9 °F 88% 29.95 in 10.0 mi SSE 4.6 mph - N/A   Scattered Clouds
5:40 PM 71.4 °F 67.3 °F 87% 29.96 in 10.0 mi SSE 3.5 mph - N/A   Scattered Clouds
6:00 PM 71.2 °F 67.1 °F 87% 29.96 in 10.0 mi Calm Calm - N/A   Clear
6:20 PM 70.9 °F 66.9 °F 87% 29.96 in 10.0 mi SSE 3.5 mph - N/A   Scattered Clouds
6:30 PM 70.7 °F 66.6 °F 87% 29.97 in 10.0 mi Calm Calm - N/A   Scattered Clouds
7:00 PM 70.9 °F 67.3 °F 88% 29.97 in 10.0 mi Calm Calm - N/A   Clear
7:20 PM 70.5 °F 66.7 °F 88% 29.97 in 10.0 mi Calm Calm - N/A   Scattered Clouds
7:40 PM 70.7 °F 67.1 °F 88% 29.97 in 10.0 mi Calm Calm - N/A   Scattered Clouds
8:00 PM 70.7 °F 67.1 °F 88% 29.98 in 10.0 mi Calm Calm - N/A   Scattered Clouds
8:20 PM 70.0 °F 67.1 °F 91% 29.97 in 10.0 mi Calm Calm - N/A   Clear
8:40 PM 69.3 °F 66.4 °F 91% 29.97 in 10.0 mi Calm Calm - N/A   Clear
9:00 PM 68.0 °F 65.3 °F 91% 29.99 in 10.0 mi Calm Calm - N/A   Clear
9:20 PM 67.5 °F 64.8 °F 91% 30.00 in 10.0 mi Calm Calm - N/A   Clear
9:30 PM 67.1 °F 64.4 °F 91% 30.00 in 7.0 mi Calm Calm - N/A   Clear
10:20 PM 65.7 °F 63.0 °F 91% 30.01 in 7.0 mi Calm Calm - N/A   Clear
10:40 PM 65.5 °F 62.8 °F 91% 30.01 in 3.0 mi Calm Calm - N/A   Clear
11:00 PM 65.3 °F 62.6 °F 91% 30.01 in 5.0 mi Calm Calm - N/A   Clear
11:20 PM 65.3 °F 62.6 °F 91% 30.01 in 7.0 mi Calm Calm - N/A   Clear
11:40 PM 64.4 °F 61.7 °F 91% 30.01 in 4.0 mi Calm Calm - N/A   Clear